Port Hardy, British Columbia

2:56 AM PST on February 07, 2016 (GMT -0800)
Port Hardy

Weather History for CYZT - April, 2013

Change the Weather History Date:

Friday, April 12, 2013

  Actual Average Record
Temperature  
Mean Temperature 40 °F -  
Max Temperature 44 °F 53 °F 59 °F (2008)
Min Temperature 35 °F 39 °F 30 °F (1998)
Degree Days  
Heating Degree Days 25    
Moisture  
Dew Point 36 °F    
Average Humidity 84    
Maximum Humidity 93    
Minimum Humidity 75    
Precipitation  
Precipitation 0.12 in 0.13 in - ()
Sea Level Pressure  
Sea Level Pressure 29.84 in    
Wind  
Wind Speed 4 mph ()    
Max Wind Speed 12 mph    
Max Gust Speed -    
Visibility 14.4 miles    
Events Rain    
Averages and records for this station are not official NWS values.
T = Trace of Precipitation, MM = Missing Value Source: Averaged Metar Reports

Daily Weather History Graph

Daily Weather History Graph

Search for Another Location

Airport or City:

Trip Planner

Search our weather history database for the weather conditions in past years. The results will help you decide how hot, cold, wet, or windy it might be!

Date:

Astronomy

Apr. 12, 2013 Rise Set
Actual Time 6:40 AM PDT 8:20 PM PDT
Civil Twilight 6:06 AM PDT 8:55 PM PDT
Nautical Twilight 5:24 AM PDT 9:37 PM PDT
Astronomical Twilight 4:37 AM PDT 10:24 PM PDT
Moon 7:40 AM PDT (4/12) 11:13 PM PDT (4/12)
Length of Visible Light 14h 48m
Length of Day
13h 39m
Waxing Crescent, 6% of the Moon is Illuminated
Apr 12
Waxing Crescent
Apr 18
First Quarter
Apr 25
Full
May 2
Last Quarter
May 9
New

Hourly Weather History & Observations

Time (PDT) Temp. Windchill Dew Point Humidity Pressure Visibility Wind Dir Wind Speed Gust Speed Precip Events Conditions
12:00 AM 39.2 °F 35.0 °F 33.8 °F 81% 30.14 in 15.0 mi SSW 5.8 mph - N/A   Overcast
1:00 AM 39.2 °F 35.9 °F 32.0 °F 75% 30.12 in 15.0 mi South 4.6 mph - N/A   Overcast
2:00 AM 39.2 °F 35.9 °F 33.8 °F 81% 30.10 in 15.0 mi SSW 4.6 mph - N/A   Overcast
4:00 AM 39.2 °F - 33.8 °F 81% 30.05 in 15.0 mi Calm Calm - N/A   Overcast
5:00 AM 39 °F - 34 °F 77% 30.01 in 15 mi South 3.5 mph - -   Overcast
5:00 AM 39.2 °F 37.0 °F 33.8 °F 81% 30.01 in 15.0 mi South 3.5 mph - N/A   Overcast
5:21 AM - - - N/A% - 15.0 mi SSE 5.8 mph - N/A Rain Light Rain
6:00 AM 39.2 °F 35.0 °F 33.8 °F 81% 29.95 in 15.0 mi SSW 5.8 mph - N/A   Overcast
7:00 AM 39.2 °F 35.0 °F 35.6 °F 87% 29.89 in 15.0 mi South 5.8 mph - N/A Rain Light Rain
7:35 AM - - - N/A% - 15.0 mi SW 5.8 mph - N/A   Overcast
8:00 AM 41.0 °F 39.0 °F 35.6 °F 81% 29.86 in 20.0 mi SSW 3.5 mph - N/A   Overcast
9:00 AM 41.0 °F - 35.6 °F 81% 29.84 in 20.0 mi Calm Calm - N/A   Overcast
9:09 AM - - - N/A% - 15.0 mi Calm Calm - N/A Rain Light Rain
10:00 AM 42.8 °F - 35.6 °F 76% 29.82 in 12.0 mi Calm Calm - N/A Rain Light Rain
11:00 AM 42.8 °F 40.1 °F 37.4 °F 81% 29.79 in 15.0 mi ESE 4.6 mph - N/A Rain Light Rain
12:00 PM 42.8 °F 36.6 °F 39.2 °F 87% 29.75 in 15.0 mi ESE 11.5 mph - N/A Rain Light Rain
1:00 PM 44.6 °F - 37.4 °F 76% 29.73 in 15.0 mi Calm Calm - N/A Rain Light Rain
2:00 PM 42.8 °F 38.0 °F 37.4 °F 81% 29.73 in 12.0 mi SSW 8.1 mph - N/A Rain Light Rain
3:00 PM 41.0 °F 34.7 °F 39.2 °F 93% 29.73 in 15.0 mi SW 10.4 mph - N/A Rain Light Rain
4:00 PM 42.8 °F 39.3 °F 39.2 °F 87% 29.71 in 15.0 mi SW 5.8 mph - N/A Rain Light Rain Showers
5:00 PM 42 °F - 38 °F 79% 29.72 in 12 mi SW 3.5 mph - - Rain Light Rain Showers
5:00 PM 42.8 °F 41.1 °F 37.4 °F 81% 29.72 in 12.0 mi SW 3.5 mph - N/A   Mostly Cloudy
5:34 PM - - - N/A% - 12.0 mi WNW 10.4 mph - N/A   Overcast
6:00 PM 39.2 °F 33.0 °F 37.4 °F 93% 29.73 in 12.0 mi WSW 9.2 mph - N/A Rain Light Rain Showers
7:00 PM 37.4 °F 30.3 °F 35.6 °F 93% 29.74 in 12.0 mi West 10.4 mph - N/A Rain Light Rain Showers
8:00 PM 37.4 °F 31.4 °F 35.6 °F 93% 29.74 in 12.0 mi SW 8.1 mph - N/A Rain Light Rain Showers
9:00 PM 37.4 °F 34.9 °F 35.6 °F 93% 29.73 in 12.0 mi SSW 3.5 mph - N/A Rain Light Rain Showers
9:38 PM - - - N/A% - 12.0 mi South 6.9 mph - N/A   Mostly Cloudy
10:00 PM 37.4 °F 32.8 °F 35.6 °F 93% 29.73 in 15.0 mi SSW 5.8 mph - N/A   Mostly Cloudy
10:36 PM - - - N/A% - 15.0 mi South 5.8 mph - N/A Rain Light Rain Showers
11:00 PM 36 °F - 34 °F 91% 29.72 in 15 mi SSE 3.5 mph - - Rain Light Rain Showers
11:00 PM 35.6 °F 32.8 °F 33.8 °F 93% 29.72 in 15.0 mi SSE 3.5 mph - N/A Rain Light Rain Showers